Location: Unspecified
(49.2170°N, 0.0000°E)
Time: 13:56:56
(UTC+00:00)

A-11 Canister half - Pass Details

Date: 19 June 2019
Orbit: 1526 x 1682 km, 47.3° (Epoch: 24 August)

Event Time Altitude Azimuth Distance (km) Brightness Sun altitude
Rises 12:06:49 0° 289° (WNW) 4,682 11.5 64.2°
Reaches altitude 10° 12:10:19 10° 279° (W) 3,701 11.1 64.1°
Maximum altitude 12:17:55 29° 224° (SW) 2,515 11.1 64.0°
Drops below altitude 10° 12:25:39 10° 168° (SSE) 3,753 11.6 63.8°
Sets 12:29:15 0° 158° (SSE) 4,758 11.9 63.6°
